Location: Newark
(51.0500°N, 12.4500°E)
Time: 21:58:12
(UTC+00:00)

Vanguard 1 - Pass Details

Date: 26 February 2020
Orbit: 649 x 3833 km, 34.2° (Epoch: 05 April)

Event Time Altitude Azimuth Distance (km) Brightness Sun altitude
Rises 07:15:03 0° 238° (WSW) 7,965 14.4 9.9°
Reaches altitude 10° 07:21:03 10° 233° (SW) 6,911 14.2 10.7°
Maximum altitude 07:40:52 42° 173° (S) 3,977 13.8 13.4°
Drops below altitude 10° 07:54:15 10° 109° (ESE) 4,779 15.4 15.1°
Sets 07:57:29 0° 102° (ESE) 5,412 15.1 15.5°
